When you browse on this site, cookies collect data to enhance your experience and personalize the content and advertising you see.
Visit our Privacy Policy to learn more. By continuing to use the site, you agree to this use of cookies and data.
  • In Portugal
  • List of Countries
  • For 7 days
  • Water Temperature
  • Satellite Maps
  • Weather Map
  • Weather Widgets
  • user-avatar
    Login

    Hourly Weather Mongu

    Today, 23 May, Thursday

    Time Temperature Precipitation Wind Pressure Humidity
    00:00 +25°C° 0 mm 1 mps 676 mmHg 37%
    01:00 +24°C° 0 mm 1 mps 676 mmHg 37%
    02:00 +24°C° 0 mm 2 mps 676 mmHg 37%
    03:00 +24°C° 0 mm 2 mps 676 mmHg 38%
    04:00 +23°C° 0 mm 2 mps 676 mmHg 39%
    05:00 +22°C° 0 mm 3 mps 675 mmHg 41%
    06:00 +21°C° 0 mm 3 mps 676 mmHg 43%
    07:00 +21°C° 0 mm 3 mps 676 mmHg 44%
    08:00 +21°C° 0 mm 3 mps 677 mmHg 45%
    09:00 +22°C° 0 mm 3 mps 677 mmHg 44%
    10:00 +24°C° 0 mm 3 mps 677 mmHg 43%
    11:00 +24°C° 0 mm 3 mps 677 mmHg 42%
    12:00 +27°C° 0 mm 3 mps 676 mmHg 36%
    13:00 +30°C° 0 mm 2 mps 676 mmHg 29%
    14:00 +31°C° 0 mm 2 mps 677 mmHg 25%
    15:00 +31°C° 0 mm 2 mps 676 mmHg 26%
    16:00 +31°C° 0 mm 2 mps 676 mmHg 26%
    17:00 +31°C° 0 mm 2 mps 676 mmHg 26%
    18:00 +28°C° 0 mm 2 mps 675 mmHg 30%
    19:00 +26°C° 0 mm 2 mps 675 mmHg 35%
    20:00 +23°C° 0 mm 2 mps 675 mmHg 39%
    21:00 +21°C° 0 mm 2 mps 676 mmHg 40%
    22:00 +20°C° 0 mm 2 mps 676 mmHg 40%
    23:00 +19°C° 0 mm 2 mps 676 mmHg 41%

    Tomorrow, 24 May, Friday

    Time Temperature Precipitation Wind Pressure Humidity
    00:00 +19°C° 0 mm 2 mps 676 mmHg 41%
    01:00 +18°C° 0 mm 2 mps 676 mmHg 41%
    02:00 +17°C° 0 mm 2 mps 676 mmHg 42%
    03:00 +16°C° 0 mm 2 mps 676 mmHg 43%
    04:00 +16°C° 0 mm 2 mps 676 mmHg 44%
    05:00 +15°C° 0 mm 2 mps 675 mmHg 44%
    06:00 +16°C° 0 mm 3 mps 676 mmHg 43%
    07:00 +17°C° 0 mm 3 mps 676 mmHg 41%
    08:00 +18°C° 0 mm 3 mps 677 mmHg 39%
    09:00 +21°C° 0 mm 3 mps 678 mmHg 33%
    10:00 +26°C° 0 mm 3 mps 678 mmHg 28%
    11:00 +29°C° 0 mm 4 mps 679 mmHg 23%
    12:00 +30°C° 0 mm 4 mps 678 mmHg 21%
    13:00 +32°C° 0 mm 4 mps 678 mmHg 19%
    14:00 +33°C° 0 mm 4 mps 677 mmHg 17%
    15:00 +31°C° 0 mm 3 mps 677 mmHg 18%
    16:00 +31°C° 0 mm 3 mps 676 mmHg 18%
    17:00 +30°C° 0 mm 3 mps 676 mmHg 18%
    18:00 +27°C° 0 mm 3 mps 676 mmHg 22%
    19:00 +24°C° 0 mm 3 mps 675 mmHg 25%
    20:00 +20°C° 0 mm 2 mps 675 mmHg 28%
    21:00 +19°C° 0 mm 2 mps 676 mmHg 30%
    22:00 +18°C° 0 mm 2 mps 676 mmHg 32%
    23:00 +17°C° 0 mm 2 mps 676 mmHg 34%

    Day after tomorrow, 25 May, Saturday

    Time Temperature Precipitation Wind Pressure Humidity
    00:00 +17°C° 0 mm 2 mps 676 mmHg 38%
    01:00 +16°C° 0 mm 2 mps 676 mmHg 42%
    02:00 +15°C° 0 mm 2 mps 676 mmHg 45%
    03:00 +15°C° 0 mm 2 mps 675 mmHg 51%
    04:00 +14°C° 0 mm 2 mps 675 mmHg 56%
    05:00 +14°C° 0 mm 2 mps 675 mmHg 61%
    06:00 +15°C° 0 mm 2 mps 676 mmHg 60%
    07:00 +16°C° 0 mm 3 mps 676 mmHg 59%
    08:00 +17°C° 0 mm 3 mps 677 mmHg 58%
    09:00 +20°C° 0 mm 3 mps 678 mmHg 50%
    10:00 +23°C° 0 mm 4 mps 678 mmHg 42%
    11:00 +27°C° 0 mm 4 mps 679 mmHg 34%
    12:00 +28°C° 0 mm 4 mps 678 mmHg 31%
    13:00 +29°C° 0 mm 4 mps 677 mmHg 28%
    14:00 +30°C° 0 mm 4 mps 677 mmHg 24%
    15:00 +30°C° 0 mm 3 mps 676 mmHg 26%
    16:00 +29°C° 0 mm 3 mps 676 mmHg 27%
    17:00 +29°C° 0 mm 3 mps 675 mmHg 28%
    18:00 +26°C° 0 mm 3 mps 675 mmHg 34%
    19:00 +23°C° 0 mm 2 mps 675 mmHg 39%
    20:00 +20°C° 0 mm 2 mps 675 mmHg 45%
    21:00 +20°C° 0 mm 2 mps 676 mmHg 45%
    22:00 +20°C° 0 mm 2 mps 676 mmHg 45%
    23:00 +20°C° 0 mm 2 mps 676 mmHg 45%

    26 May, Sunday

    Time Temperature Precipitation Wind Pressure Humidity
    00:00 +18°C° 0 mm 2 mps 676 mmHg 50%
    01:00 +17°C° 0 mm 2 mps 676 mmHg 54%
    02:00 +16°C° 0 mm 2 mps 675 mmHg 58%
    03:00 +16°C° 0 mm 2 mps 675 mmHg 63%
    04:00 +15°C° 0 mm 2 mps 675 mmHg 68%
    05:00 +14°C° 0 mm 2 mps 675 mmHg 73%
    06:00 +14°C° 0 mm 3 mps 675 mmHg 71%
    07:00 +16°C° 0 mm 3 mps 676 mmHg 69%
    08:00 +17°C° 0 mm 3 mps 677 mmHg 67%
    09:00 +20°C° 0 mm 4 mps 677 mmHg 55%
    10:00 +23°C° 0 mm 4 mps 678 mmHg 43%
    11:00 +27°C° 0 mm 5 mps 678 mmHg 31%
    12:00 +28°C° 0 mm 4 mps 678 mmHg 29%
    13:00 +29°C° 0 mm 4 mps 677 mmHg 26%
    14:00 +30°C° 0 mm 3 mps 676 mmHg 24%
    15:00 +29°C° 0 mm 3 mps 676 mmHg 24%
    16:00 +29°C° 0 mm 3 mps 675 mmHg 24%
    17:00 +29°C° 0 mm 2 mps 675 mmHg 24%
    18:00 +26°C° 0 mm 2 mps 675 mmHg 29%
    19:00 +23°C° 0 mm 2 mps 675 mmHg 34%
    20:00 +19°C° 0 mm 2 mps 675 mmHg 39%
    21:00 +19°C° 0 mm 2 mps 675 mmHg 42%
    22:00 +18°C° 0 mm 2 mps 675 mmHg 44%
    23:00 +17°C° 0 mm 2 mps 675 mmHg 47%

    27 May, Monday

    Time Temperature Precipitation Wind Pressure Humidity
    00:00 +16°C° 0 mm 2 mps 675 mmHg 48%
    01:00 +16°C° 0 mm 2 mps 675 mmHg 50%
    02:00 +15°C° 0 mm 2 mps 674 mmHg 52%
    03:00 +15°C° 0 mm 2 mps 674 mmHg 54%
    04:00 +14°C° 0 mm 2 mps 674 mmHg 57%
    05:00 +14°C° 0 mm 2 mps 674 mmHg 59%
    06:00 +14°C° 0 mm 3 mps 675 mmHg 60%
    07:00 +16°C° 0 mm 3 mps 676 mmHg 60%
    08:00 +17°C° 0 mm 3 mps 676 mmHg 60%
    09:00 +20°C° 0 mm 3 mps 677 mmHg 50%
    10:00 +25°C° 0 mm 3 mps 677 mmHg 41%
    11:00 +28°C° 0 mm 4 mps 678 mmHg 31%
    12:00 +29°C° 0 mm 3 mps 677 mmHg 28%
    13:00 +30°C° 0 mm 3 mps 676 mmHg 25%
    14:00 +31°C° 0 mm 3 mps 675 mmHg 22%
    15:00 +30°C° 0 mm 3 mps 675 mmHg 22%
    16:00 +30°C° 0 mm 3 mps 675 mmHg 23%
    17:00 +29°C° 0 mm 3 mps 674 mmHg 23%
    18:00 +27°C° 0 mm 3 mps 674 mmHg 27%
    19:00 +24°C° 0 mm 2 mps 674 mmHg 31%
    20:00 +20°C° 0 mm 2 mps 674 mmHg 35%
    21:00 +19°C° 0 mm 2 mps 674 mmHg 38%
    22:00 +18°C° 0 mm 2 mps 675 mmHg 40%
    23:00 +17°C° 0 mm 2 mps 675 mmHg 42%

    28 May, Tuesday

    Time Temperature Precipitation Wind Pressure Humidity
    00:00 +17°C° 0 mm 2 mps 674 mmHg 45%
    01:00 +16°C° 0 mm 2 mps 674 mmHg 48%
    02:00 +15°C° 0 mm 2 mps 674 mmHg 51%
    03:00 +15°C° 0 mm 2 mps 674 mmHg 53%
    04:00 +15°C° 0 mm 2 mps 674 mmHg 55%
    05:00 +15°C° 0 mm 2 mps 674 mmHg 57%
    06:00 +14°C° 0 mm 3 mps 675 mmHg 57%
    07:00 +16°C° 0 mm 3 mps 676 mmHg 56%
    08:00 +17°C° 0 mm 3 mps 676 mmHg 56%
    09:00 +21°C° 0 mm 3 mps 677 mmHg 47%
    10:00 +25°C° 0 mm 3 mps 677 mmHg 37%
    11:00 +28°C° 0 mm 3 mps 678 mmHg 28%
    12:00 +29°C° 0 mm 3 mps 677 mmHg 25%
    13:00 +30°C° 0 mm 2 mps 676 mmHg 23%
    14:00 +31°C° 0 mm 2 mps 675 mmHg 20%
    15:00 +31°C° 0 mm 2 mps 675 mmHg 21%
    16:00 +30°C° 0 mm 1 mps 675 mmHg 22%
    17:00 +30°C° 0 mm 1 mps 674 mmHg 22%
    18:00 +27°C° 0 mm 1 mps 674 mmHg 27%
    19:00 +24°C° 0 mm 1 mps 674 mmHg 32%
    20:00 +21°C° 0 mm 1 mps 674 mmHg 37%
    21:00 +20°C° 0 mm 1 mps 674 mmHg 39%
    22:00 +19°C° 0 mm 1 mps 674 mmHg 41%
    23:00 +17°C° 0 mm 2 mps 674 mmHg 43%
    Show more